Regional Weather Roundup
Issued by NWS

Home | Current Version | Previous Version | Graphics & Text | Print | Product List | Glossary On
Versions: 1 2 3 4 5 6 7 8 9 10 11 12 13 14 15 16 17 18 19 20 21 22 23 24 25 26 27 28 29 30 31 32 33 34 35 36 37 38 39 40 41 42 43 44 45 46 47 48 49 50
231
ASUS43 KMPX 191010
RWRMN
WEATHER ROUNDUP FOR MINNESOTA
NATIONAL WEATHER SERVICE TWIN CITIES/CHANHASSEN MN
500 AM CDT TUE SEP 19 2017


NOTE: "FAIR" INDICATES FEW OR NO CLOUDS BELOW 12,000 FEET WITH NO
SIGNIFICANT WEATHER AND/OR OBSTRUCTIONS TO VISIBILITY. N/A MEANS
CURRENT SKY AND/OR WEATHER CONDITIONS ARE NOT AVAILABLE.

MNZ060>063-068>070-191100-
   Twin Cities Metro

CITY           SKY/WX    TMP DP  RH WIND       PRES   REMARKS
TWIN CITIES    CLOUDY    60  58  92 SE7       29.92S
ST PAUL        CLOUDY    60  57  89 E8        29.93S
CRYSTAL        CLOUDY    60  54  80 SE6       29.90S
BLAINE         CLOUDY    61  59  94 SE6       29.92S
LAKEVILLE      CLOUDY    55  55 100 CALM      29.92S FOG
EDEN PRAIRIE   CLOUDY    60  57  89 E8        29.90F
SOUTH ST PAUL  CLOUDY    59  58  96 CALM      29.92S
LAKE ELMO      CLOUDY    59  55  88 E3        29.94S
$$
MNZ001>005-007-008-013>017-022>024-027-028-191100-
   Northwest Minnesota

CITY           SKY/WX    TMP DP  RH WIND       PRES   REMARKS
BEMIDJI        CLOUDY    54  53  99 SE8       29.87S FOG
HALLOCK        CLOUDY    59  57  94 SE8       29.81S
ROSEAU         CLOUDY    57  52  82 E7        29.85S HAZE
WARROAD        CLOUDY    55  52  88 SE7       29.87S FOG
THIEF RVR FALL CLOUDY    56  55  97 SE10      29.85R
CROOKSTON      CLOUDY    57  57 100 SE9       29.82S
FOSSTON        CLOUDY    54  54 100 SE9       29.85S
DETROIT LAKES  CLOUDY    55  55 100 SE10      29.85S FOG
MOORHEAD       CLOUDY    61  57  88 SE10      29.81S FOG
PARK RAPIDS    FOG       55  53  93 SE10      29.87F VSB 3/4
MAHNOMEN       CLOUDY    56  55  94 SE7       29.83F
$$
MNZ006-009>011-018-025>026-191100-
   North Central Minnesota

CITY           SKY/WX    TMP DP  RH WIND       PRES   REMARKS
BAUDETTE       CLOUDY    54  54 100 SE9       29.88F
FLAG ISLAND    CLOUDY    55  54  94 SE12      29.86F
INTL FALLS     CLOUDY    53  50  89 SE6       29.91F
WASKISH        CLOUDY    54  54 100 E5        29.88F
BIG FORK       CLOUDY    54  52  94 SE3       29.91F
LONGVILLE      CLOUDY    54  54 100 SE3       29.89F
GRAND RAPIDS   CLOUDY    53  52  96 SE6       29.94S
CRANE LAKE     CLOUDY    52  52 100 CALM      29.96S
ORR            CLOUDY    52  50  93 SE5       29.91F FOG
COOK           CLOUDY    54  52  94 SE3       29.94F
WALKER         CLOUDY    55  53  95 SE6       29.88S
$$
MNZ012-019>021-037-191100-
   Northeast Minnesota

CITY           SKY/WX    TMP DP  RH WIND       PRES   REMARKS
DULUTH         DRZL/FOG  54  54 100 SE7       29.96S VSB 1/2
ELY            CLOUDY    54  52  94 SE7       29.96F
HIBBING        CLOUDY    52  52 100 SE7       29.94F FOG
EVELETH        CLOUDY    55  54  95 SE6       29.96F
DULUTH HARBOR  CLOUDY    57  55  94 E7        29.97S
GRAND MARAIS     N/A     58  56  93 NE3       30.00F
$$
MNZ029>031-032-039>041-046>048-054>057-064-191100-
   West Central Minnesota

CITY           SKY/WX    TMP DP  RH WIND       PRES   REMARKS
FERGUS FALLS   CLOUDY    59  59 100 SE10      29.83S FOG
WHEATON        CLOUDY    61  61 100 SE9       29.82S FOG
MORRIS         FOG       63  61  94 SE12      29.82S VSB 1/2
ALEXANDRIA     FOG       57  57 100 SE6       29.87S VSB 1/2
ELBOW LAKE     CLOUDY    59  59 100 SE8       29.84S FOG
WADENA         FOG       54  54 100 SE9       29.86F VSB 3/4
GLENWOOD       FOG       57  57 100 SE7       29.87S VSB 1/2
APPLETON       CLOUDY    64  61  88 SE9       29.82S FOG
BENSON         CLOUDY    63  61  94 S8        29.85F FOG
ORTONVILLE     CLOUDY    63  61  94 NE10      29.80F FOG
MADISON        CLOUDY    66  66 100 SE8       29.81F FOG
WILLMAR        FOG       63  63 100 SE8       29.87F VSB 3/4
$$
MNZ033>034-036-042>043-049>051-058-059-191100-
   Central Minnesota

CITY           SKY/WX    TMP DP  RH WIND       PRES   REMARKS
ST CLOUD       CLOUDY    57  57 100 E6        29.90F FOG
PAYNESVILLE    FOG       58  59 100 SE7       29.89S VSB 1/2
AITKIN         CLOUDY    55  54  94 SE6       29.91S
PINE RIVER     CLOUDY    54  52  94 SE6       29.92F
BRAINERD       CLOUDY    55  55 100 SE6       29.90F FOG
STAPLES        CLOUDY    54  54 100 E3        29.87F FOG
LONG PRAIRIE   SNOW      54  54 100 E3        29.89S VSB 1/2
LITTLE FALLS   FOG       54  54 100 E5        29.90F VSB 3/4
LITCHFIELD     FOG       61  61 100 SE6       29.89S VSB 1/2
BUFFALO        CLOUDY    58  56  91 E3        29.91F
MAPLE LAKE     CLOUDY    60  59  96 SE3       29.91S
HUTCHINSON     FOG       61  61 100 E6        29.90S VSB 3/4
$$
MNZ037-044-045-052-053-191100-
   East Central Minnesota

CITY           SKY/WX    TMP DP  RH WIND       PRES   REMARKS
PRINCETON      CLOUDY    59  55  88 E5        29.92S
MORA           CLOUDY    54  54 100 CALM      29.94F
CAMBRIDGE      CLOUDY    61  55  82 E3        29.92F
RUSH CITY      CLOUDY    57  55  92 CALM      29.93F
MOOSE LAKE     CLOUDY    55  54  94 CALM      29.92F
HINCKLEY       CLOUDY    55  55 100 E3        29.94S
CLOQUET        CLOUDY    55  54  94 E5        29.95F FOG
MCGREGOR       CLOUDY    54  54 100 SE5       29.93F
$$
MNZ071>073-080-081-089-090-097-098-191100-
   Southwest Minnesota

CITY           SKY/WX    TMP DP  RH WIND       PRES   REMARKS
MONTEVIDEO     CLOUDY    63  63 100 S7        29.83F FOG
GRANITE FALLS  CLOUDY    65  64  96 SE7       29.86S FOG
CANBY          CLOUDY    64  63  97 E7        29.82F FOG
MARSHALL       CLOUDY    65  64  97 SE8       29.84S
REDWOOD FALLS  CLOUDY    64  62  93 SE10      29.85F FOG
OLIVIA         CLOUDY    63  61  94 SE9       29.85F FOG
PIPESTONE      CLOUDY    66  64  94 S9        29.83S FOG
WINDOM         CLOUDY    64  63  94 S9        29.86F FOG
WORTHINGTON    CLOUDY    64  63  96 SE7       29.86F
JACKSON        CLOUDY    63  63 100 CALM      29.88S FOG
TRACY          CLOUDY    66  66  99 S7        29.84F FOG
SLAYTON        CLOUDY    64  63  95 S8        29.86S FOG
$$
MNZ065>067-074>077-082>085-091>093-191100-
   South Central Minnesota

CITY           SKY/WX    TMP DP  RH WIND       PRES   REMARKS
MANKATO        CLOUDY    62  62 100 SE7       29.90S FOG
NEW ULM        FOG       61  61 100 SE5       29.88S VSB 1/2
ST JAMES       FOG       63  63 100 SE3       29.89S VSB 1/2
FAIRMONT       CLOUDY    64  64 100 S8        29.88F FOG
GLENCOE        CLOUDY    61  61 100 E6        29.89F FOG
FARIBAULT      CLOUDY    61  59  94 SE5       29.92S
OWATONNA       MOCLDY    61  59  94 E3        29.92R
WASECA         CLOUDY    59  57  94 E5        29.92S FOG
ALBERT LEA     CLOUDY    64  64 100 S5        29.92R FOG
$$
MNZ078>079-086>088-094>096-191100-
   Southeast Minnesota

CITY           SKY/WX    TMP DP  RH WIND       PRES   REMARKS
ROCHESTER      CLOUDY    57  56  96 SE5       29.94F
RED WING       PTCLDY    59  55  88 CALM      29.92S
STANTON        MOCLDY    59  56  90 CALM      29.91S
DODGE CENTER   MOCLDY    57  55  94 SE3       29.93S
WINONA         CLOUDY    59  57  94 SE6       29.95S
AUSTIN         CLOUDY    59  55  88 CALM      29.92F
PRESTON        MOCLDY    56  54  93 SE3       29.95S
$$
ABBREVIATIONS USED IN REMARKS
   TC - TEMPERATURES IN CELSIUS
  WCI - WIND CHILL INDEX
   HX - HEAT INDEX
  VSB - VISIBILITY
$$




USA.gov is the U.S. government's official web portal to all federal, state and local government web resources and services.